Location: Marcé
(47.5801°N, 0.3280°W)
Time: 17:45:36
(UTC+02:00)

ACS3 Solar Sail - Pass Details

Date: 26 June 2024
Orbit: 992 x 1023 km, 97.4° (Epoch: 12 July)

Event Time Altitude Azimuth Distance (km) Brightness Sun altitude
Exits shadow 01:00:02 - 221° (SW) 3,234 7.2 -17.6°
Reaches altitude 10° 01:01:50 10° 233° (SW) 2,760 6.9 -17.7°
Maximum altitude 01:05:56 18° 274° (W) 2,227 6.9 -17.9°
Drops below altitude 10° 01:10:03 10° 316° (NW) 2,766 8.1 -18.0°
Sets 01:13:28 0° 335° (NNW) 3,720 9.4 -18.2°
